TIANMU-1 05

Last updated on Sun Apr 12 2026 00:02:27 GMT+0000 (Coordinated Universal Time)

1 55975U 23039C 26101.50390192 .00012724 00000+0 26838-3 0 9992 2 55975 97.5193 272.6084 0002794 26.2487 333.8903 15.45365652170512
UTC large
Height (km)
Speed (km/s)
/
Latitude / Longitude
Inclination (degrees)
Orbital Period (minutes)
Azimuth
Elevation
Range (km)
Doppler Factor

Next 0 passes for location: London (51.5072 / 0.1276)

Sorry there are no passes over London.